Location: Cesani
(44.5167°N, 7.0667°E)
Time: 17:31:40
(UTC+00:00)

Daily predictions for brighter satellites

Satellite Brightness Start Highest point End
(mag) Time Altitude Azimuth Time Altitude Azimuth Time Altitude Azimuth
SL-4 R/B 2.9 19:45:21 10° W 19:48:57 49° NNW 19:52:50 10° NE
Cosmos 1328 Rocket 4.1 19:48:56 10° SSW 19:53:11 63° W 19:57:27 10° N
IRIDIUM 104 4.4 19:48:47 10° N 19:54:01 70° E 19:59:13 10° S
SPOT 5 2.9 19:51:38 10° SSE 19:55:49 52° ENE 20:00:04 10° N
Cosmos 1766 3.3 19:52:57 10° N 19:56:44 80° W 20:00:28 10° S
ERS-1 Rocket 3.7 19:52:54 10° SE 19:57:30 38° ENE 20:02:08 10° N
CZ-4B R/B 4.4 19:54:27 10° SSW 19:59:24 40° W 20:04:24 10° NNW
Cosmos 1763 Rocket 3.5 19:54:20 10° NNW 19:59:37 77° ENE 20:04:47 10° SSE
Cosmos 1553 Rocket 4.1 19:55:34 10° N 20:01:42 63° E 20:07:53 10° SSE
Cosmos 1626 4.0 19:59:22 10° SW 20:02:08 27° WNW 20:04:56 10° NNW
IRIDIUM 114 4.4 19:57:55 10° N 20:03:11 84° E 20:08:24 10° S
Spot 2 Rocket 4.4 20:00:26 10° SE 20:04:56 34° ENE 20:09:29 10° N
IRIDIUM 103 4.5 20:07:05 10° N 20:12:20 81° W 20:17:33 10° S
Okean-O 2.9 20:08:30 10° S 20:12:53 70° WSW 20:17:18 10° NNW
Cosmos 1441 Rocket 3.5 20:11:00 10° N 20:14:29 45° ENE 20:17:42 12° SSE
Cosmos 2360 Rocket 3.8 20:11:02 10° N 20:15:35 24° NE 20:20:06 10° ESE
CZ-4 R/B 4.3 20:14:22 10° WSW 20:16:04 12° W 20:17:46 10° WNW
Cosmos 2266 Rocket 4.5 20:10:59 10° SSE 20:16:54 44° E 20:22:55 10° NNE
ATLAS 2AS CENTAUR R/B 3.9 20:10:52 10° NNW 20:16:57 32° NE 20:22:49 10° E
Cosmos 1300 4.4 20:18:34 10° NNE 20:20:56 17° ENE 20:23:03 11° ESE
USA 245 3.5 20:18:43 13° SE 20:21:34 51° ENE 20:25:37 10° N
Cosmos 1674 3.2 20:18:47 10° SSW 20:22:10 53° W 20:25:35 10° N
Cosmos 1515 Rocket 3.9 20:19:11 10° SSW 20:23:27 65° W 20:27:47 10° N
In-Cosmos 22 4.4 20:18:15 10° S 20:23:44 54° E 20:29:08 10° NNE
Cosmos 2333 Rocket 3.7 20:19:16 10° N 20:24:01 26° NE 20:28:46 10° ESE
SL-16 R/B 2.7 20:19:30 10° NNW 20:25:02 50° ENE 20:29:51 13° SE
Cosmos 1908 3.0 20:23:23 10° N 20:26:59 71° E 20:30:10 13° SSE
Cosmos 1470 2.7 20:23:29 10° NNW 20:27:10 75° W 20:30:51 10° S
Cosmos 2369 4.3 20:22:01 10° NW 20:27:37 54° WSW 20:33:08 10° S
Cosmos 2082 Rocket 3.1 20:22:22 10° SW 20:27:56 53° WNW 20:33:31 10° NNE
Cosmos 468 Rocket 4.0 20:23:13 10° NNW 20:28:28 90° WNW 20:33:15 12° SSE
Atlas Centaur 2 3.9 20:21:43 10° SW 20:28:32 30° S 20:34:35 13° SE
IRS-1A Rocket 4.2 20:23:33 10° SSE 20:29:03 89° E 20:34:36 10° NNW
Ariane Rocket 3.4 20:25:00 13° SE 20:29:26 52° ENE 20:34:23 10° N
Cosmos 2228 Rocket 4.3 20:28:12 14° SE 20:31:14 27° E 20:35:06 10° NNE
SL-14 R/B 4.5 20:29:37 15° SE 20:31:46 24° E 20:34:51 10° NE
IRS-1C Rocket 4.2 20:28:05 10° SSE 20:33:20 81° WSW 20:38:38 10° NNW
Okean O Rocket 3.8 20:31:50 10° SW 20:35:17 22° W 20:38:44 10° NW
RESURS DK-1 3.4 20:32:45 10° N 20:36:30 34° NE 20:39:23 15° ESE
ARGOS Delta rocket 4.0 20:32:25 10° S 20:36:54 65° W 20:41:17 10° NNW
Tiangong -1.0 20:35:33 10° W 20:38:20 28° SSW 20:39:45 20° SSE
Cosmos 1869 Rocket 3.6 20:37:26 10° N 20:41:54 77° E 20:45:32 15° SSE
Terra 1.8 20:39:36 14° SSE 20:43:39 84° ENE 20:48:23 10° NNW
Cosmos 1346 Rocket 4.0 20:41:05 10° NNE 20:44:25 27° ENE 20:46:26 17° ESE
SPOT 3 Rocket 3.6 20:40:43 15° SSE 20:44:52 65° ENE 20:49:59 10° N
Timation 1 Rocket 4.4 20:42:58 10° S 20:48:47 59° ESE 20:54:38 10° NE
EXPRESS MD2 3.4 20:49:52 10° W 20:52:38 43° NNW 20:54:46 10° NE
Cosmos 540 Rocket 4.2 20:48:51 10° NNW 20:53:48 49° WSW 20:58:18 12° S
Meteor 1-22 Rocket 4.3 20:50:12 10° N 20:55:52 85° E 21:00:32 17° SSE
Cosmos 2315 Rocket 4.2 20:51:14 10° N 20:57:33 63° ENE 21:02:15 19° SSE
Cosmos 1758 3.5 20:55:15 10° N 20:59:05 52° ENE 21:01:09 24° SE
Cosmos 1741 Rocket 4.2 20:54:54 13° S 20:59:27 52° ESE 21:04:36 10° NNE
Cosmos 968 Rocket 4.0 20:59:28 19° SSE 21:02:38 40° ESE 21:07:28 10° NE
Landsat 4 3.5 21:00:47 23° S 21:02:49 77° WSW 21:06:17 10° NNW
Cosmos 1980 Rocket 4.3 21:03:43 10° NW 21:07:37 19° W 21:11:29 10° SW
Cosmos 1356 Rocket 3.5 21:06:07 22° S 21:08:38 60° E 21:12:48 10° NNE
Cosmos 2322 Rocket 2.3 21:03:17 10° NNW 21:08:57 69° ENE 21:12:36 23° SE
SeaSat 1 3.2 21:07:45 16° S 21:11:22 43° WSW 21:16:04 10° NW
Cosmos 1862 Rocket 3.7 21:11:25 25° SSE 21:13:44 54° E 21:18:04 10° NNE
Meteor 1-21 4.3 21:13:03 19° S 21:17:13 65° E 21:22:59 10° NNE
MOS 1 Rocket 4.0 21:14:17 17° S 21:18:28 61° W 21:23:45 10° NNW
Cosmos 2278 4.3 21:13:31 10° NW 21:19:01 51° WSW 21:22:56 19° S
Okean 2 4.4 21:19:14 25° ESE 21:20:09 27° E 21:23:35 10° NNE
USA 234 3.8 21:17:03 10° NE 21:23:29 61° NNW 21:29:53 10° WSW
Cosmos 1400 Rocket 3.8 21:21:49 10° SSW 21:25:32 44° WNW 21:29:16 10° N
SL-4 R/B 3.9 21:24:54 10° WNW 21:28:21 29° N 21:31:59 10° ENE
Cosmos 1455 3.5 21:26:01 10° NNE 21:28:54 23° ENE 21:29:35 22° E
COSMOS 2428 4.4 21:25:02 10° N 21:29:32 23° NE 21:33:46 11° E
Meteor 2-10 Rocket 4.0 21:27:15 10° NNW 21:32:46 62° W 21:36:16 22° S
Meteor 2-20 4.4 21:27:35 10° N 21:33:47 82° E 21:37:26 26° SSE
Cosmos 1707 Rocket 3.7 21:31:39 22° SSW 21:34:31 75° W 21:38:59 10° N
Landsat 5 3.5 21:31:31 10° N 21:35:30 73° WNW 21:38:06 22° SSW
Cosmos 2219 Rocket 2.8 21:30:48 10° NNW 21:36:17 47° ENE 21:39:27 24° ESE
ATLAS CENTAUR R/B 1.0 21:35:12 17° SW 21:37:49 78° NW 21:41:25 10° NNE
Cosmos 841 Rocket 4.2 21:33:12 10° NNW 21:38:13 46° WSW 21:41:16 22° SSW
Cosmos 1315 Rocket 3.1 21:39:54 39° SE 21:40:48 47° E 21:44:40 10° NNE
ARIANE 5 R/B 3.3 21:39:26 28° ESE 21:41:01 40° ENE 21:45:05 10° N
SJ 16-02 1.2 21:39:29 34° S 21:41:12 66° ESE 21:45:30 10° NNE
Meteor 1-4 Rocket 1.9 21:41:42 64° ESE 21:41:47 64° E 21:44:45 10° NNE
SL-27 R/B 2.3 21:41:51 42° WSW 21:42:28 56° WNW 21:45:13 10° NNE
Okean 3 3.3 21:41:42 33° S 21:43:30 89° W 21:47:42 10° N
Cosmos 1953 2.7 21:42:59 10° N 21:46:42 46° ENE 21:47:31 39° ESE
Cosmos 1241 Rocket 4.4 21:42:43 20° SSW 21:46:58 61° ESE 21:53:07 10° NE
Aureole 3 3.5 21:49:38 34° SSW 21:51:14 72° W 21:55:48 10° N
Cosmos 1300 4.0 21:52:34 10° NNW 21:55:43 30° W 21:57:03 23° SW
Cosmos 1733 Rocket 3.9 21:53:17 10° NNW 21:57:29 45° W 21:59:30 26° SSW
Cosmos 2360 Rocket 2.4 21:54:24 10° NNW 22:00:02 63° WSW 22:02:32 33° S
H-2A R/B 3.5 21:59:14 29° ESE 22:00:33 36° ENE 22:04:28 10° N
GP-B 3.2 21:59:00 10° N 22:03:22 58° E 22:04:27 44° SE
Cosmos 839 Rocket 4.0 21:56:43 10° NNW 22:03:39 85° NE 22:06:44 32° SE
ATLAS 2AS CENTAUR R/B 2.6 22:01:39 10° NW 22:08:27 72° WSW 22:11:32 34° SSE
Cosmos 2333 Rocket 2.5 22:03:02 10° NNW 22:08:42 59° WSW 22:11:07 34° S
SL-16 R/B 3.7 22:04:11 10° NW 22:08:48 26° WSW 22:11:42 17° SW
Meteor 2-20 Rocket 4.5 22:02:32 10° NNW 22:08:50 77° W 22:11:49 32° S
Cosmos 1908 Rocket 3.4 22:05:39 10° N 22:10:01 79° E 22:11:05 50° SSE
Cosmos 1782 Rocket 4.2 22:08:25 10° N 22:12:33 42° ENE 22:13:29 37° ESE
BREEZE-M DEB (TANK) 4.4 22:10:33 10° WNW 22:13:21 46° N 22:20:34 10° ENE
RESURS DK-1 4.0 22:10:49 10° NW 22:14:02 23° WSW 22:14:58 21° SW
Okean 1-7 3.2 22:13:21 37° SSW 22:14:54 67° W 22:19:14 10° N
Atlas Centaur 2 4.0 22:10:34 10° WSW 22:16:47 24° SSW 22:16:47 24° SSW
Cosmos 1408 3.9 22:22:39 23° ENE 22:22:39 23° ENE 22:24:23 10° NNE
Terra 4.4 22:20:37 10° WSW 22:21:51 11° W 22:23:06 10° WNW
Cosmos 1242 Rocket 2.8 22:23:20 45° N 22:23:20 45° N 22:25:24 10° N
BlueWalker 3 3.4 22:24:28 24° E 22:24:28 24° E 22:26:11 10° ENE
MINOTAUR 4 R/B 4.0 22:23:39 10° N 22:26:10 59° NNW 22:26:10 59° NNW
SL-24 R/B - RUBIN 2 4.4 22:23:24 10° NW 22:30:04 87° SW 22:32:37 38° SSE
USA 281 3.3 22:28:55 35° S 22:31:50 70° WSW 22:38:26 10° NNW
Cosmos 1570 Rocket 4.0 22:27:21 10° NNW 22:32:43 77° ENE 22:34:28 43° SE
Cosmos 1300 Rocket 3.7 22:28:57 10° N 22:33:12 58° E 22:33:55 50° ESE
Cosmos 2237 Rocket 3.8 22:28:37 10° N 22:33:28 28° NE 22:37:15 14° ESE
ALOS 2 3.2 22:32:43 40° ESE 22:33:44 48° ENE 22:37:58 10° N
Cosmos 2322 3.7 22:28:21 10° NNW 22:34:03 76° ENE 22:36:10 40° SE
Cosmos 1238 4.5 22:31:02 10° N 22:34:07 69° ENE 22:34:07 69° ENE
H-2A R/B 3.9 22:32:36 10° NE 22:35:22 17° E 22:35:22 17° E
Cosmos 371 Rocket 4.0 22:38:28 36° ESE 22:38:49 37° ESE 22:43:13 10° NE
Cosmos 2227 Rocket 4.0 22:38:36 15° ESE 22:39:07 15° E 22:42:10 10° ENE
CZ-3 Stage 3 4.1 22:11:46 10° W 22:41:24 40° SSW 22:45:18 31° S
CZ-2C R/B 4.5 22:37:32 10° N 22:41:44 44° WNW 22:43:37 28° SW
CZ-4C R/B 2.5 22:42:24 34° ESE 22:42:24 34° ESE 22:46:54 10° NE
BREEZE-M DEB (TANK) 4.0 22:45:04 36° ENE 22:45:04 36° ENE 22:47:56 10° ENE
Cosmos 1703 4.0 22:44:41 37° E 22:44:41 37° E 22:47:50 10° NNE
Cosmos 1709 Rocket 4.1 22:45:07 40° SSE 22:47:30 69° E 22:53:51 10° NNE
Cosmos 1703 Rocket 4.4 22:48:43 32° SW 22:50:12 44° WNW 22:54:29 10° N
Spot 4 3.7 22:49:10 54° S 22:50:15 82° WSW 22:55:06 10° NNW
Cosmos 2322 Rocket 4.0 22:48:35 10° WNW 22:52:23 19° W 22:54:24 16° SW
NOSS 0 Rocket 4.2 22:49:40 10° NNW 22:55:54 66° ENE 22:58:44 33° SE
Cosmos 158 Rocket 3.9 22:51:29 10° NNW 22:56:50 86° ENE 22:58:13 50° SSE
Cosmos 2242 Rocket 3.5 22:57:30 62° S 22:58:14 84° E 23:02:49 10° N
Cosmos 2297 Rocket 2.7 22:57:54 38° SE 22:58:52 42° ESE 23:04:09 10° NE
Meteor 2-5 Rocket 4.1 22:57:47 41° SSE 22:59:32 57° E 23:05:16 10° NNE
Cosmos 1455 3.9 23:00:33 10° NW 23:03:11 20° W 23:03:18 20° W
Cosmos 2208 Rocket 3.9 22:59:31 10° NNW 23:04:44 76° WSW 23:05:55 53° S
Cosmos 836 Rocket 4.4 23:00:43 10° NNW 23:05:57 89° WSW 23:07:16 52° SSE
GEOS 3 Rocket 4.1 23:01:08 10° NE 23:05:57 39° ESE 23:06:13 39° SE
Cosmos 1892 4.4 23:06:43 21° ENE 23:06:43 21° ENE 23:08:59 10° NE
SL-4 R/B 3.2 23:03:54 10° NW 23:07:47 43° NNE 23:11:54 10° E
Cosmos 773 Rocket 4.3 23:03:48 10° NNW 23:08:54 60° ENE 23:10:31 40° SE
CENTAUR R/B 3.6 23:12:45 22° ESE 23:13:19 23° ESE 23:18:08 10° ENE
COSMOS 2428 2.7 23:08:37 10° NNW 23:14:16 66° WSW 23:15:44 48° S
COSMOS 2455 2.7 23:12:16 42° SSW 23:14:24 81° ESE 23:20:28 10° NNE
Cosmos 2098 Rocket 4.1 23:09:22 10° N 23:16:00 74° E 23:18:27 40° SSE
ATLAS CENTAUR R/B 4.2 23:15:03 10° NW 23:16:08 11° NNW 23:17:14 10° NNW
Cosmos 1503 Rocket 4.1 23:15:43 51° SSE 23:16:49 64° ESE 23:22:05 10° NNE
ARIANE 5 R/B 4.3 23:16:54 19° WSW 23:17:35 20° W 23:20:46 10° NW
Cosmos 1777 Rocket 4.2 23:18:39 48° SE 23:19:37 55° ESE 23:24:47 10° NNE
Cosmos 2219 Rocket 3.4 23:15:13 10° NW 23:19:56 28° WSW 23:21:08 26° SW
SJ 16-02 3.9 23:17:39 10° W 23:20:01 14° NW 23:22:24 10° NNW
Cosmos 332 Rocket 4.3 23:31:19 41° ESE 23:31:52 43° ESE 23:36:29 10° NNE
Cosmos 304 Rocket 3.7 23:31:07 59° SSW 23:32:02 84° WNW 23:36:49 10° NNE
PSLV R/B 3.4 23:28:25 10° N 23:32:38 77° WNW 23:33:06 67° SW
Cosmos 2263 Rocket 4.0 23:33:49 15° ESE 23:35:00 16° E 23:38:16 10° ENE
H-2A R/B 4.1 23:35:13 22° W 23:35:32 22° W 23:38:56 10° NW
Okean 1 Rocket 3.7 23:38:02 10° N 23:42:13 45° ENE 23:43:06 39° ESE
Cosmos 1825 2.4 23:47:12 55° NE 23:47:12 55° NE 23:50:10 10° NNE
Cosmos 2181 Rocket 3.9 23:41:16 10° N 23:47:29 80° W 23:49:34 44° S
NOSS 3-2 (A) 4.2 23:54:08 26° SE 23:54:47 27° ESE 23:59:32 10° NE
